TimeMDT,TemperatureF,Dew PointF,Humidity,Sea Level PressureIn,VisibilityMPH,Wind Direction,Wind SpeedMPH,Gust SpeedMPH,PrecipitationIn,Events,Conditions,WindDirDegrees,DateUTC
12:53 AM,63.0,50.0,63,30.04,10.0,South,9.2,-,N/A,,Clear,170,2013-07-16 06:53:00
1:53 AM,61.0,51.1,70,30.05,10.0,SSE,12.7,-,N/A,,Clear,150,2013-07-16 07:53:00
2:53 AM,57.9,52.0,81,30.05,10.0,SSE,10.4,-,N/A,,Clear,150,2013-07-16 08:53:00
3:53 AM,60.1,53.1,78,30.03,10.0,SSE,11.5,-,N/A,,Clear,160,2013-07-16 09:53:00
4:53 AM,57.0,53.1,87,30.04,10.0,SSE,10.4,-,N/A,,Clear,160,2013-07-16 10:53:00
5:53 AM,57.0,54.0,89,30.06,9.0,SSE,9.2,-,N/A,,Clear,150,2013-07-16 11:53:00
6:53 AM,61.0,55.9,83,30.06,10.0,SSE,12.7,-,N/A,,Clear,150,2013-07-16 12:53:00
7:53 AM,66.0,55.9,70,30.08,10.0,SSE,15.0,21.9,N/A,,Clear,160,2013-07-16 13:53:00
8:53 AM,69.1,57.0,65,30.10,10.0,South,16.1,20.7,N/A,,Clear,170,2013-07-16 14:53:00
9:53 AM,72.0,57.0,59,30.11,10.0,SSE,17.3,-,N/A,,Clear,150,2013-07-16 15:53:00
10:53 AM,75.9,54.0,46,30.11,10.0,South,15.0,23.0,N/A,,Clear,170,2013-07-16 16:53:00
11:53 AM,79.0,55.0,44,30.10,10.0,SSE,17.3,27.6,N/A,,Clear,160,2013-07-16 17:53:00
12:53 PM,81.0,55.0,41,30.08,10.0,South,12.7,25.3,N/A,,Clear,170,2013-07-16 18:53:00
1:53 PM,82.9,55.0,38,30.09,10.0,SSE,15.0,29.9,N/A,,Clear,150,2013-07-16 19:53:00
2:53 PM,82.9,53.1,36,30.09,10.0,SE,17.3,26.5,N/A,,Clear,140,2013-07-16 20:53:00
3:53 PM,84.9,52.0,32,30.08,10.0,South,13.8,26.5,N/A,,Clear,170,2013-07-16 21:53:00
4:53 PM,84.9,52.0,32,30.08,10.0,SSE,20.7,29.9,N/A,,Partly Cloudy,150,2013-07-16 22:53:00
5:53 PM,82.9,52.0,34,30.07,10.0,SSE,18.4,28.8,N/A,,Clear,160,2013-07-16 23:53:00
6:53 PM,82.0,51.1,34,30.06,10.0,SSE,18.4,-,N/A,,Clear,160,2013-07-17 00:53:00
7:53 PM,78.1,54.0,43,30.08,10.0,SSE,16.1,-,N/A,,Clear,150,2013-07-17 01:53:00
8:53 PM,73.9,57.0,55,30.10,10.0,SSE,16.1,24.2,N/A,,Clear,150,2013-07-17 02:53:00
9:53 PM,71.1,57.9,63,30.13,10.0,SSE,16.1,-,N/A,,Clear,160,2013-07-17 03:53:00
10:53 PM,69.1,57.9,68,30.14,10.0,SSE,12.7,-,N/A,,Clear,160,2013-07-17 04:53:00
11:53 PM,68.0,57.9,70,30.15,10.0,South,12.7,-,N/A,,Clear,170,2013-07-17 05:53:00